This demonstration page uses our WeatherBlox Daily Observations layout. Learn more.

Left ArrowRight Arrow

Hourly Observations for March 5, 2018

Temp ( °F °C ) Dew Point ( °F °C ) Humidity (%) Winds ( mph kmh ) Pressure ( in mb ) Visibility ( mi km ) Precip ( " mm )
12:33 am 00:33 Cloudy with Mist and Fog 52 11.1 48 8.9 86 86 SE 18 30 29.65 1004 4 6 0.00 0.00
12:54 am 00:54 Cloudy with Light Rain 51 10.6 48 8.9 89 89 SSE 15 24 29.64 1004 3 5 0.00 0.03
1:14 am 01:14 Cloudy with Light Rain 51 10.6 49 9.4 92 92 SE 14 22 29.62 1003 4 6 0.01 0.25
1:54 am 01:54 Cloudy 51 10.6 49 9.4 92 92 SSE 14 22 29.60 1002 8 13 0.01 0.25
2:54 am 02:54 Cloudy 51 10.6 49 9.4 92 92 SE 15 24 29.54 1000 9 14 0.00 0.00
3:54 am 03:54 Cloudy 52 11.1 50 10 93 93 SSE 16 26 29.51 999 8 13 0.00 0.00
4:54 am 04:54 Cloudy 53 11.7 51 10.6 93 93 SSE 14 22 29.49 999 7 11 0.00 0.00
5:22 am 05:22 Cloudy with Light Rain 51 10.6 49 9.4 92 92 WNW 22 35 29.56 1001 3 5 0.03 0.76
5:38 am 05:38 Cloudy with Light Rain 42 5.6 39 3.9 89 89 WNW 24 39 29.62 1003 7 11 0.03 0.76
5:54 am 05:54 Cloudy with Light Rain 39 3.9 37 2.8 93 93 NW 30 48 29.56 1001 8 13 0.03 0.76
6:49 am 06:49 Cloudy with Light Rain 36 2 34 1 93 93 NW 29 46 29.65 1004 7 11 0.00 0.03
6:54 am 06:54 Cloudy with Light Rain 36 2.2 33 0.6 89 89 NW 26 43 29.62 1003 8 13 0.00 0.03
7:15 am 07:15 Cloudy with Light Rain 36 2.2 32 0 86 86 NW 26 43 29.68 1005 9 14 0.00 0.03
7:26 am 07:26 Cloudy with Light Rain 36 2.2 33 0.6 89 89 NW 28 44 29.68 1005 4 6 0.00 0.03
7:54 am 07:54 Cloudy with Light Rain 35 1.7 31 -0.6 85 85 NW 30 48 29.68 1005 7 11 0.00 0.03
8:09 am 08:09 Cloudy with Light Rain 34 1.1 32 0 92 92 NW 23 37 29.71 1006 5 8 0.00 0.03
8:24 am 08:24 Cloudy with Light Rain 34 1.1 31 -0.6 89 89 NW 22 35 29.71 1006 8 13 0.00 0.03
8:54 am 08:54 Cloudy 35 1.7 31 -0.6 85 85 WNW 22 35 29.70 1006 9 14 0.00 0.03
9:01 am 09:01 Cloudy 34 1.1 30 -1.1 85 85 NW 23 37 29.74 1007 9 14 0.00 0.00
9:08 am 09:08 Cloudy 35 1.7 31 -0.6 85 85 NW 21 33 29.74 1007 10 16 0.00 0.00
9:54 am 09:54 Cloudy 35 1.7 29 -1.7 78 78 NW 33 54 29.75 1007 10 16 0.00 0.00
10:10 am 10:10 Cloudy 35 1.7 29 -1.7 78 78 WNW 24 39 29.77 1008 10 16 0.00 0.00
10:54 am 10:54 Cloudy 36 2.2 25 -3.9 64 64 WNW 24 39 29.79 1009 10 16 0.00 0.03
11:54 am 11:54 Mostly Cloudy 39 3.9 23 -5 53 53 WNW 24 39 29.80 1009 10 16 0.00 0.00
12:54 pm 12:54 Mostly Cloudy 43 6.1 21 -6.1 42 42 W 32 52 29.80 1009 10 16 0.00 0.00
1:54 pm 13:54 Cloudy 42 5.6 21 -6.1 43 43 W 24 39 29.79 1009 10 16 0.00 0.00
2:54 pm 14:54 Mostly Cloudy 44 6.7 20 -6.7 38 38 W 22 35 29.78 1009 10 16 0.00 0.00
3:54 pm 15:54 Cloudy 42 5.6 19 -7.2 40 40 WNW 28 44 29.80 1009 10 16 0.00 0.00
4:54 pm 16:54 Cloudy 42 5.6 19 -7.2 40 40 W 20 31 29.81 1010 10 16 0.00 0.00
5:54 pm 17:54 Cloudy 42 5.6 19 -7.2 40 40 WNW 23 37 29.83 1010 10 16 0.00 0.00
6:54 pm 18:54 Cloudy 41 5 19 -7.2 41 41 WNW 17 28 29.83 1010 10 16 0.00 0.00
7:54 pm 19:54 Mostly Cloudy 40 4.4 19 -7.2 43 43 W 12 19 29.82 1010 10 16 0.00 0.00
8:54 pm 20:54 Partly Cloudy 37 2.8 21 -6.1 52 52 W 12 19 29.82 1010 10 16 0.00 0.00
9:54 pm 21:54 Mostly Cloudy 38 3.3 21 -6.1 51 51 W 17 28 29.80 1009 10 16 0.00 0.00
10:54 pm 22:54 Partly Cloudy 37 2.8 20 -6.7 50 50 W 22 35 29.80 1009 10 16 0.00 0.00

Powered by AerisWeather